User: anonymous   Login
Location: Unspecified
(0.0000°N, 0.0000°E)
Time: 21:41:53
(UTC+02:00)
Language:

Cosmos 1538 Rocket - Orbit

View from above orbital plane
View from above orbital plane
View from above satellite
View from above satellite

Ground track
Ground track

The orbit data is extracted from the following two-line orbital elements,

1 14760U 84019B   17234.57789608 -.00000011  00000-0  53391-5 0  9996
2 14760  74.0451   0.0577 0028249 205.4336 281.3285 14.35824895753113
Epoch (UTC): 22 August 2017 13:52:10
Eccentricity: 0.0028249
inclination: 74.0451°
perigee height: 752 km
apogee height: 792 km
right ascension of ascending node: 0.0577°
argument of perigee: 205.4336°
revolutions per day: 14.35824895
mean anomaly at epoch: 281.3285°
orbit number at epoch: 75311

The dashed part of the orbit path shows where the satellite is in the earth's shadow,  

DLR